Regional Weather Roundup
Issued by NWS Upton, NY

Current Version | Previous Version | Text Only | Print | Product List | Glossary On
Versions: 1 2 3 4 5 6 7 8 9 10 11 12 13 14 15 16 17 18 19 20 21 22 23 24 25 26 27 28 29 30 31 32 33 34 35 36 37 38 39 40 41 42 43 44 45 46 47 48 49 50
000 ASUS41 KOKX 271504 RWROKX REGIONAL WEATHER ROUNDUP NATIONAL WEATHER SERVICE NEW YORK NY 1100 AM EDT THU AUG 27 2015 NOTE: "FAIR" INDICATES FEW OR NO CLOUDS BELOW 12,000 FEET WITH NO SIGNIFICANT WEATHER AND/OR OBSTRUCTIONS TO VISIBILITY. NYZ071-072-176-178-NJZ106-104-271600- NEW YORK CITY METRO AREA CITY SKY/WX TMP DP RH WIND PRES REMARKS CENTRAL PARK SUNNY 76 52 43 W6 30.10R LAGUARDIA APRT MOSUNNY 75 53 46 NW13 30.07R KENNEDY INTL MOSUNNY 78 53 41 NW7 30.08R NEWARK/LIBERTY MOSUNNY 78 53 41 NW12G18 30.07S BRNX BOT. GARD N/A 75 54 46 W7 30.10R TETERBORO SUNNY 76 51 41 N8 30.07R $$ NYZ177-179-078>081-271600- LONG ISLAND NEW YORK CITY SKY/WX TMP DP RH WIND PRES REMARKS FARMINGDALE SUNNY 77 55 46 MISG 30.07R ISLIP MOSUNNY 76 56 49 NW10 30.05R SHIRLEY SUNNY 77 55 46 W6 30.06S WESTHAMPTON SUNNY 77 54 44 N8 30.07R MONTAUK POINT N/A 75 57 53 NW9 30.06R $$ NYZ052-065-067-271600- HUDSON VALLEY CITY SKY/WX TMP DP RH WIND PRES REMARKS WHITE PLAINS MOSUNNY 74 54 49 NW14 30.07R NEWBURGH MOSUNNY 72 57 60 W14 30.09S MONTGOMERY PTSUNNY 71 55 56 NW7 30.09R POUGHKEEPSIE MOSUNNY 74 54 49 VRB5 30.07R ALBANY PTSUNNY 68 56 65 NW8 30.07R $$ NJZ001-105-106-008-010-013-015-019>022-104-271600- NEW JERSEY CITY SKY/WX TMP DP RH WIND PRES REMARKS NEWARK/LIBERTY MOSUNNY 78 53 41 NW12G18 30.07S TETERBORO SUNNY 76 51 41 N8 30.07R CALDWELL MOSUNNY 74 53 48 NW8 30.09R MORRISTOWN MOSUNNY 75 57 53 N7 30.09S SOMERVILLE MOSUNNY 75 54 47 VRB6 30.08R SUSSEX PTSUNNY 69 55 60 W8 30.11R ANDOVER N/A 71 57 61 VRB7 30.12R TRENTON MOSUNNY 74 57 55 W8 30.09S MILLVILLE MOSUNNY 74 57 55 MISG 30.11R ATLANTIC CITY PTSUNNY 76 56 49 MISG 30.10R WRIGHTSTOWN MOSUNNY 74 58 58 N10 30.07S TOMS RIVER MOSUNNY 73 55 53 CALM 30.09S BELMAR SUNNY 75 55 50 NW10 30.08S $$ PAZ047>061-062-071-271600- EASTERN PENNSYLVANIA CITY SKY/WX TMP DP RH WIND PRES REMARKS PHILADELPHIA PTSUNNY 76 54 46 N9 30.11R ALLENTOWN MOSUNNY 72 55 55 NW9 30.12R SCRANTON CLOUDY 67 52 58 NW15 30.14R $$ CTZ002-004>006-009-010-012-RIZ004-006-007-MAZ004-011-015-271600- SOUTHERN NEW ENGLAND IN CT CITY SKY/WX TMP DP RH WIND PRES REMARKS BRADLEY INTL MOSUNNY 75 55 49 NW7 30.04S HARTFORD MOSUNNY 75 56 51 NW10 30.04S DANBURY MOSUNNY 73 54 51 VRB7 30.08S WTRBRY/OXFORD MOSUNNY 72 54 53 N7 30.09R BRIDGEPORT SUNNY 76 56 49 NW8 30.05S MERIDEN SUNNY 76 53 44 NW10 30.05S NEW HAVEN MOSUNNY 75 55 49 VRB6 30.05S CHESTER NOT AVBL GROTON SUNNY 75 58 55 NW9 30.03R WILLIMANTIC SUNNY 74 55 51 NW9 30.05R IN RI CITY SKY/WX TMP DP RH WIND PRES REMARKS PROVIDENCE MOSUNNY 76 54 46 NW9 30.02S BLOCK ISLAND SUNNY 73 57 56 NW7 30.05R WESTERLY SUNNY 76 56 49 N9 30.04R IN MA CITY SKY/WX TMP DP RH WIND PRES REMARKS BOSTON MOSUNNY 77 54 44 NW9 30.00R WORCESTER SUNNY 70 55 59 W12 30.04S WESTFIELD PTSUNNY 71 54 54 W9 30.04S PROVINCETOWN SUNNY 72 57 60 NW10 30.01R NANTUCKET MOSUNNY 75 59 57 NW12 30.01R $$ ANZ330-335-338-340-345-350-353-355-271600- COASTAL MARINE OBSERVATIONS STATION/POSITION TIME SKY/WX TEMP WIND PRES VSBY WAVE AIR SEA DIR/SP/G HT/PER (UTC) (F) (DEG/KT/KT) (MB) (MI) (FT/S) NY HARB ENTRANCE 1350 71 76 330/ 10/ 14 1017.9 2/13 4S FIRE IS NOT AVBL 20S FIRE ISLAND 1350 70 74 350/ 8/ 10 1017.8 2/ 8 GREAT SOUTH BAY 1400 73 81 CALM / 8 N/A 23SW MTP 1450 69 72 330/ 8/ 10 1017.4 2/10 HUDSON CANYON NOT AVBL KINGS POINT NOT AVBL EXECUTION ROCKS 1400 73 300/ 6/ 14 N/A CENTRAL LI SOUND NOT AVBL EASTERN LI SOUND 1400 73 71 330/ 12/ 16 N/A ROBBINS REEF NOT AVBL $$ >>>>>>>>>>>>>>>>>>>>>>>>>>>> KEY <<<<<<<<<<<<<<<<<<<<<<<<<<< > < > SKY/WX - SKY CONDITION/PRESENT WEATHER < > TMP - TEMPERATURE IN FAHRENHEIT < > DP - DEWPOINT IN FAHRENHEIT < > RH - RELATIVE HUMIDITY IN PERCENT < > WIND - DIRECTION AND SPEED IN MPH < > PRES - MEAN SEA LEVEL PRESSURE IN INCHES OF HG < > WCI - WIND CHILL INDEX < > VSB - VISIBILITY IN MILES < > HX - HEAT INDEX < > TC - TEMPERATURE IN CELSIUS < > VRB - VARIABLE WIND DIRECTION < > < >>>>>>>>>>>>>>>>>>>>>>>>>>>> KEY <<<<<<<<<<<<<<<<<<<<<<<<<<<

USA.gov is the U.S. government's official web portal to all federal, state and local government web resources and services.